Russell, KS

1:34 AM CST on February 10, 2016 (GMT -0600)
Russell Municipal

Weather History for KRSL - December, 2013

Change the Weather History Date:

Saturday, December 21, 2013

  Actual Average Record
Temperature  
Mean Temperature 22 °F -  
Max Temperature 25 °F 38 °F 63 °F (1957)
Min Temperature 19 °F 18 °F -15 °F (1983)
Degree Days  
Heating Degree Days 43    
Moisture  
Dew Point 16 °F    
Average Humidity 74    
Maximum Humidity 85    
Minimum Humidity 60    
Precipitation  
Precipitation 0.00 in - - ()
Sea Level Pressure  
Sea Level Pressure 29.78 in    
Wind  
Wind Speed 7 mph (NNE)    
Max Wind Speed 16 mph    
Max Gust Speed 24 mph    
Visibility 8 miles    
Events Snow    
Averages and records for this station are not official NWS values.
T = Trace of Precipitation, MM = Missing Value Source: NWS Daily Summary

Daily Weather History Graph

Daily Weather History Graph

Search for Another Location

Airport or City:

Trip Planner

Search our weather history database for the weather conditions in past years. The results will help you decide how hot, cold, wet, or windy it might be!

Date:

Astronomy

Dec. 21, 2013 Rise Set
Actual Time 7:50 AM CST 5:16 PM CST
Civil Twilight 7:20 AM CST 5:46 PM CST
Nautical Twilight 6:46 AM CST 6:20 PM CST
Astronomical Twilight 6:14 AM CST 6:52 PM CST
Moon 9:32 PM CST (12/21) 10:19 AM CST (12/21)
Length of Visible Light 10h 26m
Length of Day
9h 26m
Waning Gibbous, 84% of the Moon is Illuminated
Dec 21
Waning Gibbous
Dec 25
Last Quarter
Jan 1
New
Jan 7
First Quarter
Jan 15
Full

Hourly Weather History & Observations

Time (CST) Temp. Windchill Dew Point Humidity Pressure Visibility Wind Dir Wind Speed Gust Speed Precip Events Conditions
12:53 AM 19.9 °F 13.4 °F 12.9 °F 74% 29.91 in 10.0 mi SSE 4.6 mph - N/A   Clear
1:53 AM 19.0 °F - 12.9 °F 77% 29.86 in 10.0 mi Calm Calm - N/A   Clear
2:53 AM 19.0 °F - 14.0 °F 81% 29.83 in 10.0 mi Calm Calm - N/A   Clear
3:53 AM 19.0 °F 13.9 °F 14.0 °F 81% 29.83 in 10.0 mi NNW 3.5 mph - N/A   Clear
4:53 AM 19.0 °F - 14.0 °F 81% 29.81 in 10.0 mi Calm Calm - N/A   Clear
5:53 AM 19.9 °F 14.9 °F 14.0 °F 78% 29.83 in 10.0 mi North 3.5 mph - N/A   Clear
6:53 AM 19.0 °F 10.0 °F 14.0 °F 81% 29.83 in 10.0 mi East 6.9 mph - N/A   Clear
7:53 AM 19.9 °F - 15.1 °F 81% 29.81 in 10.0 mi North - - N/A   Clear
8:53 AM 21.0 °F 14.6 °F 15.1 °F 78% 29.81 in 10.0 mi East 4.6 mph - N/A   Clear
9:53 AM 21.9 °F 14.5 °F 14.0 °F 72% 29.83 in 10.0 mi NE 5.8 mph - N/A   Clear
10:53 AM 23.0 °F - 12.0 °F 63% 29.82 in 10.0 mi North - - N/A   Clear
11:53 AM 25.0 °F - 12.9 °F 60% 29.79 in 10.0 mi North - - N/A   Clear
1:53 PM 25.0 °F 14.2 °F 14.0 °F 63% 29.73 in 10.0 mi NNE 11.5 mph - N/A   Clear
2:42 PM 25.0 °F 13.6 °F 15.1 °F 66% 29.65 in 10.0 mi NE 12.7 mph - N/A   Mostly Cloudy
2:53 PM 25.0 °F 14.2 °F 15.1 °F 66% 29.74 in 10.0 mi NE 11.5 mph - N/A   Overcast
3:15 PM 25.0 °F 14.2 °F 15.1 °F 66% 29.67 in 10.0 mi NNE 11.5 mph - N/A   Overcast
3:49 PM 24.8 °F 13.4 °F 15.8 °F 69% 29.66 in 10.0 mi NE 12.7 mph - N/A   Overcast
3:53 PM 25.0 °F 13.6 °F 15.1 °F 66% 29.74 in 10.0 mi NNE 12.7 mph - N/A   Overcast
4:30 PM 25.0 °F 13.1 °F 15.1 °F 66% 29.66 in 10.0 mi NNE 13.8 mph - N/A   Overcast
4:53 PM 25.0 °F 12.2 °F 16.0 °F 69% 29.73 in 10.0 mi NNE 16.1 mph - N/A   Overcast
5:45 PM 25.0 °F 12.2 °F 16.0 °F 69% 29.67 in 10.0 mi North 16.1 mph - N/A   Overcast
5:53 PM 25.0 °F 12.2 °F 16.0 °F 69% 29.75 in 10.0 mi North 16.1 mph - N/A   Overcast
6:53 PM 25.0 °F 12.6 °F 16.0 °F 69% 29.77 in 10.0 mi North 15.0 mph 24.2 mph N/A   Overcast
7:53 PM 25.0 °F 13.6 °F 16.0 °F 69% 29.80 in 9.0 mi North 12.7 mph - N/A   Overcast
8:09 PM 25.0 °F 12.6 °F 18.0 °F 75% 29.74 in 2.0 mi North 15.0 mph - 0.00 in Snow Light Snow
8:20 PM 25.0 °F 14.2 °F 18.0 °F 75% 29.74 in 4.0 mi North 11.5 mph - 0.00 in Snow Light Snow
8:27 PM 25.0 °F 14.2 °F 18.0 °F 75% 29.74 in 5.0 mi North 11.5 mph - 0.00 in Snow Light Snow
8:53 PM 25.0 °F 15.5 °F 18.0 °F 75% 29.82 in 5.0 mi North 9.2 mph - 0.00 in Snow Light Snow
9:22 PM 24.1 °F 13.1 °F 18.0 °F 77% 29.76 in 1.8 mi North 11.5 mph - 0.00 in Snow Light Snow
9:38 PM 24.1 °F 14.4 °F 19.0 °F 81% 29.77 in 2.0 mi North 9.2 mph - 0.00 in Snow Light Snow
9:53 PM 24.1 °F 14.4 °F 19.9 °F 84% 29.85 in 2.5 mi NNE 9.2 mph - 0.00 in Snow Light Snow
10:08 PM 24.1 °F 15.2 °F 19.9 °F 84% 29.78 in 3.0 mi North 8.1 mph - 0.00 in Snow Light Snow
10:53 PM 23.0 °F 13.1 °F 19.0 °F 85% 29.88 in 10.0 mi North 9.2 mph - 0.00 in   Overcast
11:53 PM 24.1 °F 11.5 °F 18.0 °F 77% 29.90 in 10.0 mi North 15.0 mph - N/A   Overcast